Location: Bear Valley
(38.4650°N, 120.0390°W)
Time: 13:40:40
(UTC-07:00)

OTV 5 (USA 277) - Visible Passes

Search period start: 21 April 2019 00:00
Search period end: 01 May 2019 00:00
Orbit: 309 x 326 km, 54.5° (Epoch: 21 April)

Date Brightness Start Highest point End Pass type
(mag) Time Alt. Az. Time Alt. Az. Time Alt. Az.
21 Apr ? 04:39:06 10° NNW 04:41:21 24° NE 04:43:35 10° E visible
22 Apr ? 04:53:35 11° NW 04:56:11 72° NE 04:58:48 10° SE visible
22 Apr ? 21:12:19 10° SW 21:14:38 59° SSW 21:14:38 59° SSW visible
23 Apr ? 05:10:00 24° W 05:10:49 30° SW 05:13:11 10° SSE visible
23 Apr ? 21:27:16 10° WSW 21:29:47 33° NW 21:31:37 15° NNE visible
24 Apr ? 21:43:01 10° WNW 21:44:40 15° NNW 21:46:21 10° N visible
25 Apr ? 20:22:13 10° WSW 20:24:54 58° NW 20:27:35 10° NE visible
26 Apr ? 20:37:33 10° W 20:39:44 21° NW 20:41:55 10° NNE visible
27 Apr ? 20:54:04 10° NW 20:54:43 11° NNW 20:55:23 10° NNW visible
